User: anonymous
Location: Skalnate Pleso
(49.1889°N, 20.2450°E)
Time: 13:20:10
(UTC+02:00)
Language:

Iridium 18 - Orbit

View from above orbital plane
View from above orbital plane
View from above satellite
View from above satellite

Ground track
Ground track

The orbit data is extracted from the following two-line orbital elements,

1 24872U 97034D   14292.45679550  .00000150  00000-0  46471-4 0   145
2 24872 086.3968 068.2119 0001935 112.9729 247.1671 14.34216343904632
Epoch (UTC): 19 October 2014 10:57:47
Eccentricity: 0.0001935
inclination: 86.3968°
perigee height: 776 km
apogee height: 779 km
right ascension of ascending node: 68.2119°
argument of perigee: 112.9729°
revolutions per day: 14.34216343
mean anomaly at epoch: 247.1671°
orbit number at epoch: 90463

The dashed part of the orbit path shows where the satellite is in the earth's shadow,  

DLR